sat.trackr.live / text

‹ back to catalog

KUIPER-00168

NORAD 65781 · 2025-217V

PAYLOAD ACTIVE UNKNOWN

§ Identity

Operator
Country
US
Launch date
2025-09-25
Launch site
AFETR
Launch vehicle
Mass (kg)
RCS (m²)

External: N2YO · Heavens-Above · Gunter

§ Orbital elements

Epoch: 2026-05-25T04:14:52.996992Z

Period
97.30 min
Inclination
51.9012°
Eccentricity
0.0000900
Mean motion
14.79938939 rev/d
Perigee alt
628.9 km
Apogee alt
630.1 km
Semi-major
7,007.7 km
B*
2.6644e-4
RAAN
49.8774°
Arg perigee
100.4937°
Mean anomaly
259.6126°
Rev number
3,641

§ Raw data

KUIPER-001681 65781U 25217V   26145.17700228  .00001811  00000+0  26644-3 0  99942 65781  51.9012  49.8774 0000900 100.4937 259.6126 14.79938939 36416

JSON: /api/v1/satellites/65781 · /tle

For live sub-satellite position, see the globe view (requires WebGL).

§ Visibility from observer

Set your observer location to see the next 7 days of passes ≥ 10°. The values pass through the URL so the page stays shareable.

No JS? Fill the form by hand. The geolocation button needs JavaScript.